FW8796 Weather Reports


time (UTC)temp
C
wind
direction
speed
KPH
gust
KPH
rain 1hr
cm
rain 24hr
cm
rain mn
cm
humidity
%
barometer
mb
20260506180104 3 306 8.0 14.5 0.00 0.00 0.00 58 1015.7
20260506175604 3 326 8.0 16.1 0.00 0.00 0.00 58 1015.7
20260506174605 4 271 4.8 9.7 0.00 0.00 0.00 59 1015.6
20260506174104 4 290 3.2 11.3 0.00 0.00 0.00 58 1015.7
20260506173604 4 285 1.6 4.8 0.00 0.00 0.00 59 1015.7
20260506173104 4 296 3.2 8.0 0.00 0.00 0.00 59 1015.6
20260506172604 4 297 3.2 9.7 0.00 0.00 0.00 58 1015.5
20260506172104 4 260 4.8 8.0 0.00 0.00 0.00 58 1015.6
20260506171605 4 309 6.4 12.9 0.00 0.00 0.00 57 1015.6
20260506170605 4 302 4.8 9.7 0.00 0.00 0.00 57 1015.6
20260506170104 4 336 4.8 11.3 0.00 0.00 0.00 57 1015.6
20260506165605 4 310 4.8 14.5 0.00 0.00 0.00 56 1015.6
20260506165104 4 325 6.4 12.9 0.00 0.00 0.00 56 1015.6
20260506164604 5 311 6.4 9.7 0.00 0.00 0.00 55 1015.7
20260506163604 5 310 3.2 12.9 0.00 0.00 0.00 55 1015.7
20260506162604 5 324 8.0 11.3 0.00 0.00 0.00 56 1015.6
20260506161605 5 330 1.6 12.9 0.00 0.00 0.00 56 1015.5
20260506161104 5 290 1.6 14.5 0.00 0.00 0.00 57 1015.6
20260506160604 5 298 8.0 19.3 0.00 0.00 0.00 55 1015.6
20260506160105 5 309 4.8 14.5 0.00 0.00 0.00 55 1015.7
20260506155604 5 300 3.2 12.9 0.00 0.00 0.00 55 1015.7
20260506155104 5 321 6.4 12.9 0.00 0.00 0.00 54 1015.7
20260506154604 5 310 3.2 9.7 0.00 0.00 0.00 54 1015.7
20260506154104 5 258 4.8 11.3 0.00 0.00 0.00 59 1015.7
20260506153604 4 316 9.7 19.3 0.00 0.00 0.00 57 1015.8
20260506153104 4 314 9.7 16.1 0.00 0.00 0.00 59 1015.8
20260506152604 4 296 4.8 8.0 0.00 0.00 0.00 60 1015.8
20260506151605 5 286 8.0 14.5 0.00 0.00 0.00 56 1015.8
20260506151104 5 292 6.4 14.5 0.00 0.00 0.00 57 1015.8
20260506150605 6 290 4.8 14.5 0.00 0.00 0.00 57 1015.8
20260506150105 5 220 4.8 19.3 0.00 0.00 0.00 57 1015.7
20260506145604 5 234 11.3 19.3 0.00 0.00 0.00 57 1015.8
20260506145104 5 270 3.2 11.3 0.00 0.00 0.00 58 1015.8
20260506144604 5 339 4.8 19.3 0.00 0.00 0.00 60 1015.8
20260506144104 4 228 9.7 16.1 0.00 0.00 0.00 60 1015.9
20260506143105 4 245 8.0 16.1 0.00 0.00 0.00 60 1015.9
20260506142605 4 326 4.8 12.9 0.00 0.00 0.00 59 1015.9
20260506142104 5 292 4.8 12.9 0.00 0.00 0.00 58 1016.0
20260506141605 5 287 11.3 19.3 0.00 0.00 0.00 56 1016.0
20260506141105 5 299 4.8 12.9 0.00 0.00 0.00 54 1015.9
20260506140605 5 305 6.4 16.1 0.00 0.00 0.00 52 1015.9
20260506140104 5 319 3.2 8.0 0.00 0.00 0.00 51 1015.9
20260506135604 5 288 8.0 16.1 0.00 0.00 0.00 51 1016.0
20260506135105 5 211 4.8 16.1 0.00 0.00 0.00 50 1015.8
20260506134604 5 298 1.6 12.9 0.00 0.00 0.00 50 1015.8
20260506134104 5 253 8.0 14.5 0.00 0.00 0.00 50 1015.8
20260506133604 5 294 9.7 19.3 0.00 0.00 0.00 50 1015.8
20260506132604 5 321 0.0 11.3 0.00 0.00 0.00 51 1015.8
20260506132104 4 244 4.8 11.3 0.00 0.00 0.00 51 1015.8
20260506131605 5 261 11.3 19.3 0.00 0.00 0.00 54 1015.9
20260506130604 6 304 3.2 14.5 0.00 0.00 0.00 47 1015.9
20260506130105 6 307 4.8 12.9 0.00 0.00 0.00 49 1015.9
20260506125605 5 207 3.2 11.3 0.00 0.00 0.00 50 1015.9
20260506125104 5 275 3.2 12.9 0.00 0.00 0.00 50 1016.1
20260506124604 5 313 8.0 16.1 0.00 0.00 0.00 51 1016.1
20260506124104 6 297 4.8 12.9 0.00 0.00 0.00 51 1016.1
20260506123604 6 200 3.2 14.5 0.00 0.00 0.00 52 1016.0
20260506123105 5 218 8.0 25.7 0.00 0.00 0.00 52 1015.9
20260506122604 5 188 4.8 11.3 0.00 0.00 0.00 52 1015.9
20260506121604 5 210 11.3 22.5 0.00 0.00 0.00 53 1016.0
20260506121104 4 230 9.7 16.1 0.00 0.00 0.00 57 1016.0
20260506120604 4 200 8.0 14.5 0.00 0.00 0.00 55 1016.0
20260506120104 4 317 3.2 12.9 0.00 0.00 0.00 55 1016.0
20260506115605 4 311 0.0 19.3 0.00 0.00 0.00 56 1016.0
20260506115104 4 304 4.8 16.1 0.00 0.00 0.00 56 1016.0
20260506114604 4 333 1.6 11.3 0.00 0.00 0.00 56 1016.0
20260506114105 4 341 9.7 16.1 0.00 0.00 0.00 56 1015.9
20260506113605 3 320 4.8 11.3 0.00 0.00 0.00 58 1016.0
20260506113104 3 330 9.7 24.1 0.00 0.00 0.00 56 1016.0
20260506112605 4 340 9.7 24.1 0.00 0.00 0.00 56 1016.0
20260506112105 4 13 8.0 16.1 0.00 0.00 0.00 57 1016.0
20260506111604 4 259 4.8 16.1 0.00 0.00 0.00 56 1016.0
20260506111104 5 328 8.0 19.3 0.00 0.00 0.00 57 1016.1
20260506110604 3 319 4.8 11.3 0.00 0.00 0.00 58 1016.1
20260506110105 3 320 4.8 14.5 0.00 0.00 0.00 58 1016.2
20260506105605 4 354 11.3 19.3 0.00 0.00 0.00 56 1016.1
20260506105104 4 8 6.4 11.3 0.00 0.00 0.00 57 1016.1
20260506104605 4 311 9.7 14.5 0.00 0.00 0.00 57 1016.2
20260506104105 3 18 3.2 16.1 0.00 0.00 0.00 59 1016.1
20260506103605 3 337 14.5 22.5 0.00 0.00 0.00 57 1016.1
20260506102604 3 352 4.8 22.5 0.00 0.00 0.00 57 1016.2
20260506102104 4 338 8.0 19.3 0.00 0.00 0.00 58 1016.2
20260506101604 3 52 4.8 14.5 0.00 0.00 0.00 59 1016.2
20260506101105 3 309 11.3 24.1 0.00 0.00 0.00 57 1016.3
20260506100604 3 267 8.0 19.3 0.00 0.00 0.00 58 1016.3
20260506100104 3 317 14.5 22.5 0.00 0.00 0.00 57 1016.3
20260506095604 3 304 4.8 14.5 0.00 0.00 0.00 57 1016.2
20260506095104 3 352 8.0 19.3 0.00 0.00 0.00 58 1016.2
20260506094604 3 321 11.3 24.1 0.00 0.00 0.00 57 1016.2
20260506094104 3 313 14.5 19.3 0.00 0.00 0.00 57 1016.2
20260506093604 3 319 3.2 19.3 0.00 0.00 0.00 57 1016.2
20260506093104 3 317 9.7 16.1 0.00 0.00 0.00 56 1016.2
20260506092105 3 313 9.7 19.3 0.00 0.00 0.00 57 1016.2
20260506091604 3 312 1.6 14.5 0.00 0.00 0.00 58 1016.3
20260506091104 3 317 11.3 20.9 0.00 0.00 0.00 59 1016.3
20260506090605 2 318 4.8 24.1 0.00 0.00 0.00 59 1016.4
20260506090105 2 320 9.7 22.5 0.00 0.00 0.00 59 1016.4
20260506085104 2 318 11.3 22.5 0.00 0.00 0.00 58 1016.3
20260506084604 2 322 14.5 20.9 0.00 0.00 0.00 57 1016.3
20260506084104 3 327 12.9 19.3 0.00 0.00 0.00 58 1016.2
20260506083604 2 323 4.8 16.1 0.00 0.00 0.00 58 1016.1
20260506082104 2 225 11.3 20.9 0.00 0.00 0.00 60 1016.1
20260506081604 2 253 9.7 20.9 0.00 0.00 0.00 59 1016.1
20260506081104 2 236 11.3 20.9 0.00 0.00 0.00 59 1016.0
20260506080605 2 248 6.4 16.1 0.00 0.00 0.00 61 1016.1
20260506080104 2 232 4.8 14.5 0.00 0.00 0.00 60 1016.1
20260506072604 2 336 0.0 3.2 0.00 0.00 0.00 63 1016.0
20260506072104 1 335 3.2 9.7 0.00 0.00 0.00 62 1016.1
20260506071605 2 313 8.0 12.9 0.00 0.00 0.00 63 1016.0
20260506070604 1 167 1.6 4.8 0.00 0.00 0.00 68 1016.0
20260506062104 0 276 0.0 4.8 0.00 0.00 0.00 76 1016.0
20260506061604 0 276 0.0 0.0 0.00 0.00 0.00 77 1016.1
20260506061105 0 276 0.0 0.0 0.00 0.00 0.00 78 1016.1
20260506060604 0 276 0.0 0.0 0.00 0.00 0.00 80 1016.1
20260506060104 0 276 0.0 0.0 0.00 0.00 0.00 83 1016.1
20260506051104 -4 276 0.0 0.0 0.00 0.00 0.00 90 1016.1
20260506050104 -5 276 0.0 0.0 0.00 0.00 0.00 90 1016.1
20260506044605 -5 276 0.0 0.0 0.00 0.00 0.00 90 1016.1
20260506044105 -5 276 0.0 0.0 0.00 0.00 0.00 90 1016.1
20260506043604 -5 276 0.0 0.0 0.00 0.00 0.00 90 1016.0
20260506043104 -5 276 0.0 0.0 0.00 0.00 0.00 90 1016.1
20260506042604 -5 276 0.0 0.0 0.00 0.00 0.00 91 1016.1
20260506042105 -5 276 0.0 0.0 0.00 0.00 0.00 90 1016.1
20260506041604 -5 276 0.0 0.0 0.00 0.00 0.00 91 1016.0
20260506040105 -5 276 0.0 4.8 0.00 0.00 0.00 91 1015.9
20260506035604 -5 276 0.0 0.0 0.00 0.00 0.00 90 1015.8
20260506035104 -5 276 0.0 0.0 0.00 0.00 0.00 90 1015.8
20260506034605 -5 276 0.0 0.0 0.00 0.00 0.00 90 1015.8
20260506033604 -5 276 0.0 0.0 0.00 0.00 0.00 91 1015.8
20260506033105 -5 276 0.0 0.0 0.00 0.00 0.00 91 1015.7
20260506032604 -5 276 0.0 0.0 0.00 0.00 0.00 91 1015.7
20260506032104 -5 276 0.0 0.0 0.00 0.00 0.00 91 1015.7
20260506031605 -5 276 0.0 0.0 0.00 0.00 0.00 91 1015.7
20260506031104 -5 276 0.0 0.0 0.00 0.00 0.00 91 1015.8
20260506030604 -5 276 0.0 0.0 0.00 0.00 0.00 91 1015.7
20260506030105 -5 276 0.0 0.0 0.00 0.00 0.00 90 1015.7
20260506025604 -5 276 0.0 0.0 0.00 0.00 0.00 90 1015.6
20260506025104 -5 276 0.0 0.0 0.00 0.00 0.00 90 1015.6
20260506024104 -5 276 0.0 0.0 0.00 0.00 0.00 90 1015.7
20260506023604 -5 276 0.0 0.0 0.00 0.00 0.00 90 1015.8
20260506023104 -5 276 0.0 0.0 0.00 0.00 0.00 90 1015.8
20260506022605 -5 276 0.0 0.0 0.00 0.00 0.00 91 1015.9
20260506022104 -5 276 0.0 0.0 0.00 0.00 0.00 91 1015.9
20260506021604 -5 276 0.0 0.0 0.00 0.00 0.00 91 1015.9
20260506021105 -5 276 0.0 0.0 0.00 0.00 0.00 91 1015.9
20260506020605 -5 276 0.0 0.0 0.00 0.00 0.00 91 1016.0
20260506020105 -5 276 0.0 0.0 0.00 0.00 0.00 91 1016.0
20260506015105 -5 276 0.0 0.0 0.00 0.00 0.00 91 1015.9
20260506014605 -5 276 0.0 0.0 0.00 0.00 0.00 90 1015.9
20260506014104 -5 276 0.0 0.0 0.00 0.00 0.00 90 1015.9
20260506013605 -5 276 0.0 0.0 0.00 0.00 0.00 90 1015.8
20260506012604 -5 276 0.0 0.0 0.00 0.00 0.00 90 1015.8
20260506012104 -5 276 0.0 0.0 0.00 0.00 0.00 90 1015.8
20260506011605 -5 276 0.0 0.0 0.00 0.00 0.00 90 1015.8
20260506010604 -5 276 0.0 0.0 0.00 0.00 0.00 90 1015.9
20260506010104 -5 276 0.0 0.0 0.00 0.00 0.00 89 1015.9
20260506005604 -5 276 0.0 0.0 0.00 0.00 0.00 89 1015.9
20260506004604 -4 276 0.0 0.0 0.00 0.00 0.00 89 1015.8
20260506004104 -4 276 0.0 0.0 0.00 0.00 0.00 89 1015.8
20260506002604 -4 276 0.0 0.0 0.00 0.00 0.00 88 1015.8
20260506002104 -3 276 0.0 0.0 0.00 0.00 0.00 88 1015.7
20260506001605 -3 276 0.0 0.0 0.00 0.00 0.00 88 1015.7
20260506001104 -3 276 0.0 0.0 0.00 0.00 0.00 88 1015.7
20260506000604 -3 276 0.0 0.0 0.00 0.00 0.00 87 1015.7
20260506000104 -3 276 0.0 0.0 0.00 0.00 0.00 87 1015.6
20260505235605 -3 276 0.0 0.0 0.00 0.00 0.00 87 1015.6
20260505235104 -3 276 0.0 0.0 0.00 0.00 0.00 86 1015.7
20260505234604 -3 276 0.0 0.0 0.00 0.00 0.00 86 1015.6
20260505234105 -3 276 0.0 0.0 0.00 0.00 0.00 85 1015.5
20260505233605 -2 276 0.0 0.0 0.00 0.00 0.00 85 1015.4
20260505233104 -2 276 0.0 0.0 0.00 0.00 0.00 84 1015.4
20260505232105 -2 276 0.0 0.0 0.00 0.00 0.00 82 1015.5
20260505231605 -2 276 0.0 4.8 0.00 0.00 0.00 82 1015.4
20260505231104 -2 276 1.6 4.8 0.00 0.00 0.00 83 1015.4
20260505230604 -2 277 0.0 0.0 0.00 0.00 0.00 82 1015.4
20260505225604 -2 277 0.0 4.8 0.00 0.00 0.00 82 1015.5
20260505225105 -1 277 0.0 4.8 0.00 0.00 0.00 82 1015.4
20260505224604 -1 277 0.0 0.0 0.00 0.00 0.00 81 1015.4
20260505224104 -1 277 0.0 0.0 0.00 0.00 0.00 80 1015.4
20260505223605 -1 277 0.0 0.0 0.00 0.00 0.00 78 1015.4
20260505222604 -1 277 3.2 4.8 0.00 0.00 0.00 79 1015.3
20260505222104 -1 279 1.6 4.8 0.00 0.00 0.00 79 1015.3
20260505221604 -1 277 1.6 4.8 0.00 0.00 0.00 79 1015.4
20260505221104 -1 278 0.0 0.0 0.00 0.00 0.00 78 1015.4
20260505220604 0 277 0.0 0.0 0.00 0.00 0.00 78 1015.3
20260505220104 0 277 1.6 4.8 0.00 0.00 0.00 76 1015.4
20260505215604 0 277 1.6 4.8 0.00 0.00 0.00 76 1015.4
20260505215105 0 277 1.6 4.8 0.00 0.00 0.00 77 1015.5
20260505214604 0 277 3.2 8.0 0.00 0.00 0.00 78 1015.5
20260505214104 0 268 1.6 4.8 0.00 0.00 0.00 79 1015.4
20260505213604 0 266 0.0 4.8 0.00 0.00 0.00 79 1015.4
20260505213105 0 264 0.0 4.8 0.00 0.00 0.00 79 1015.5
20260505212604 0 264 0.0 3.2 0.00 0.00 0.00 80 1015.5
20260505212104 0 264 0.0 0.0 0.00 0.00 0.00 80 1015.6
20260505211605 0 265 0.0 0.0 0.00 0.00 0.00 79 1015.5
20260505211104 0 264 0.0 0.0 0.00 0.00 0.00 79 1015.5
20260505210604 0 264 0.0 0.0 0.00 0.00 0.00 79 1015.5
20260505210104 0 264 1.6 4.8 0.00 0.00 0.00 79 1015.5
20260505205604 0 262 3.2 4.8 0.00 0.00 0.00 78 1015.4
20260505205104 0 177 0.0 4.8 0.00 0.00 0.00 77 1015.3
20260505204605 0 158 0.0 4.8 0.00 0.00 0.00 78 1015.3
20260505204104 0 151 4.8 11.3 0.00 0.00 0.00 77 1015.3
20260505203105 0 253 0.0 0.0 0.00 0.00 0.00 76 1015.1
20260505202604 0 254 0.0 0.0 0.00 0.00 0.00 76 1015.1
20260505202104 0 254 0.0 0.0 0.00 0.00 0.00 77 1015.2
20260505201104 0 254 0.0 0.0 0.00 0.00 0.00 76 1015.2
20260505200604 0 254 0.0 0.0 0.00 0.00 0.00 76 1015.2
20260505200104 0 254 0.0 0.0 0.00 0.00 0.00 75 1015.2
20260505195605 0 256 1.6 4.8 0.00 0.00 0.00 75 1015.1
20260505195104 0 253 0.0 0.0 0.00 0.00 0.00 75 1015.1
20260505194604 0 253 0.0 0.0 0.00 0.00 0.00 74 1015.0
20260505194105 0 253 0.0 0.0 0.00 0.00 0.00 73 1015.1
20260505193604 0 253 0.0 0.0 0.00 0.00 0.00 73 1015.0
20260505193104 1 253 0.0 0.0 0.00 0.00 0.00 72 1015.0
20260505192105 1 253 1.6 4.8 0.00 0.00 0.00 70 1015.0
20260505191604 1 226 0.0 4.8 0.00 0.00 0.00 69 1015.0
20260505191104 1 226 6.4 12.9 0.00 0.00 0.00 69 1014.9
20260505190605 1 195 3.2 11.3 0.00 0.00 0.00 69 1014.8
20260505190104 1 288 1.6 8.0 0.00 0.00 0.00 69 1014.8
20260505185605 1 275 0.0 9.7 0.00 0.00 0.00 69 1014.8
20260505185104 1 278 3.2 4.8 0.00 0.00 0.00 68 1014.8
20260505184604 1 233 0.0 4.8 0.00 0.00 0.00 68 1014.7
20260505184105 1 239 4.8 16.1 0.00 0.00 0.00 68 1014.6
20260505183604 1 198 4.8 19.3 0.00 0.00 0.00 68 1014.5
20260505183105 1 221 3.2 11.3 0.00 0.00 0.00 68 1014.5
20260505182104 1 247 3.2 19.3 0.00 0.00 0.00 69 1014.4
20260505181105 2 256 6.4 16.1 0.00 0.00 0.00 68 1014.4
20260505180604 2 207 6.4 19.3 0.00 0.00 0.00 69 1014.4